Time,TemperatureF,DewpointF,PressureIn,WindDirection,WindDirectionDegrees,WindSpeedMPH,WindSpeedGustMPH,Humidity,HourlyPrecipIn,Conditions,Clouds,dailyrainin,SoftwareType,DateUTC
2013-04-21 00:14:00,32.5,32.0,30.28,SSE,157,0.0,-999.0,98,-99.99,,,0.00,Acu-Link.com,2013-04-21 04:14:00,
2013-04-21 00:29:00,32.2,31.7,30.29,SE,135,0.0,-999.0,98,-99.99,,,0.00,Acu-Link.com,2013-04-21 04:29:00,
2013-04-21 00:44:00,31.1,30.6,30.29,ESE,112,0.0,-999.0,98,-99.99,,,0.00,Acu-Link.com,2013-04-21 04:44:00,
2013-04-21 00:59:00,30.0,29.5,30.30,SSW,202,0.0,-999.0,98,-99.99,,,0.00,Acu-Link.com,2013-04-21 04:59:00,
2013-04-21 01:15:00,29.3,28.8,30.31,NE,45,0.0,-999.0,98,-99.99,,,0.00,Acu-Link.com,2013-04-21 05:15:00,
2013-04-21 01:30:00,28.4,27.9,30.30,SE,135,0.0,-999.0,98,-99.99,,,0.00,Acu-Link.com,2013-04-21 05:30:00,
2013-04-21 01:45:00,28.6,28.1,30.31,WNW,292,0.0,-999.0,98,-99.99,,,0.00,Acu-Link.com,2013-04-21 05:45:00,
2013-04-21 02:00:00,28.0,27.5,30.32,WSW,247,0.0,-999.0,98,-99.99,,,0.00,Acu-Link.com,2013-04-21 06:00:00,
2013-04-21 02:16:00,28.4,27.9,30.32,SE,135,0.0,-999.0,98,-99.99,,,0.00,Acu-Link.com,2013-04-21 06:16:00,
2013-04-21 02:31:00,28.0,27.5,30.32,SE,135,0.0,-999.0,98,-99.99,,,0.00,Acu-Link.com,2013-04-21 06:31:00,
2013-04-21 02:46:00,28.6,28.1,30.33,South,180,0.0,-999.0,98,-99.99,,,0.00,Acu-Link.com,2013-04-21 06:46:00,
2013-04-21 03:02:00,29.1,28.6,30.33,SSW,202,0.0,-999.0,98,-99.99,,,0.00,Acu-Link.com,2013-04-21 07:02:00,
2013-04-21 03:17:00,29.5,29.0,30.34,South,180,0.0,-999.0,98,-99.99,,,0.00,Acu-Link.com,2013-04-21 07:17:00,
2013-04-21 03:32:00,29.8,29.3,30.34,South,180,0.0,-999.0,98,-99.99,,,0.00,Acu-Link.com,2013-04-21 07:32:00,
2013-04-21 03:48:00,30.0,29.5,30.34,South,180,0.0,-999.0,98,-99.99,,,0.00,Acu-Link.com,2013-04-21 07:48:00,
2013-04-21 04:03:00,30.0,29.5,30.35,SSE,157,0.0,-999.0,98,-99.99,,,0.00,Acu-Link.com,2013-04-21 08:03:00,
2013-04-21 04:18:00,29.7,29.2,30.35,SW,225,0.0,-999.0,98,-99.99,,,0.00,Acu-Link.com,2013-04-21 08:18:00,
2013-04-21 04:33:00,29.8,29.3,30.36,SE,135,0.0,-999.0,98,-99.99,,,0.00,Acu-Link.com,2013-04-21 08:33:00,
2013-04-21 04:49:00,29.5,29.0,30.37,SW,225,0.0,-999.0,98,-99.99,,,0.00,Acu-Link.com,2013-04-21 08:49:00,
2013-04-21 05:04:00,28.4,27.9,30.38,WNW,292,0.0,-999.0,98,-99.99,,,0.00,Acu-Link.com,2013-04-21 09:04:00,
2013-04-21 05:19:00,27.7,27.2,30.38,WSW,247,0.0,-999.0,98,-99.99,,,0.00,Acu-Link.com,2013-04-21 09:19:00,
2013-04-21 05:35:00,27.3,26.8,30.38,WNW,292,0.0,-999.0,98,-99.99,,,0.00,Acu-Link.com,2013-04-21 09:35:00,
2013-04-21 05:50:00,27.5,27.0,30.39,NNW,337,0.0,-999.0,98,-99.99,,,0.00,Acu-Link.com,2013-04-21 09:50:00,
2013-04-21 06:05:00,26.6,26.1,30.40,WNW,292,0.0,-999.0,98,-99.99,,,0.00,Acu-Link.com,2013-04-21 10:05:00,
2013-04-21 06:21:00,26.4,25.9,30.41,SE,135,0.0,-999.0,98,-99.99,,,0.00,Acu-Link.com,2013-04-21 10:21:00,
2013-04-21 06:36:00,26.8,26.3,30.42,SSE,157,0.0,-999.0,98,-99.99,,,0.00,Acu-Link.com,2013-04-21 10:36:00,
2013-04-21 06:51:00,26.8,26.3,30.43,SE,135,0.0,-999.0,98,-99.99,,,0.00,Acu-Link.com,2013-04-21 10:51:00,
2013-04-21 07:06:00,27.0,26.5,30.44,ESE,112,0.0,-999.0,98,-99.99,,,0.00,Acu-Link.com,2013-04-21 11:06:00,
2013-04-21 07:21:00,27.1,26.6,30.44,West,270,0.0,-999.0,98,-99.99,,,0.00,Acu-Link.com,2013-04-21 11:21:00,
2013-04-21 07:37:00,27.0,26.5,30.45,West,270,0.0,-999.0,98,-99.99,,,0.00,Acu-Link.com,2013-04-21 11:37:00,
2013-04-21 07:52:00,27.5,27.0,30.45,South,180,0.0,-999.0,98,-99.99,,,0.00,Acu-Link.com,2013-04-21 11:52:00,
2013-04-21 08:07:00,29.7,29.2,30.46,SSE,157,0.0,-999.0,98,-99.99,,,0.00,Acu-Link.com,2013-04-21 12:07:00,
2013-04-21 08:23:00,33.1,32.6,30.46,ESE,112,0.0,-999.0,98,-99.99,,,0.00,Acu-Link.com,2013-04-21 12:23:00,
2013-04-21 08:38:00,37.8,37.3,30.46,West,270,0.0,-999.0,98,-99.99,,,0.00,Acu-Link.com,2013-04-21 12:38:00,
2013-04-21 08:53:00,39.4,38.9,30.46,NNW,337,0.0,-999.0,98,-99.99,,,0.00,Acu-Link.com,2013-04-21 12:53:00,
2013-04-21 09:09:00,39.7,39.2,30.47,NNW,337,0.0,-999.0,98,-99.99,,,0.00,Acu-Link.com,2013-04-21 13:09:00,
2013-04-21 09:24:00,41.2,40.7,30.46,ESE,112,2.2,-999.0,98,-99.99,,,0.00,Acu-Link.com,2013-04-21 13:24:00,
2013-04-21 09:39:00,42.3,41.8,30.46,South,180,0.0,-999.0,98,-99.99,,,0.00,Acu-Link.com,2013-04-21 13:39:00,
2013-04-21 09:55:00,42.6,42.1,30.46,South,180,0.0,-999.0,98,-99.99,,,0.00,Acu-Link.com,2013-04-21 13:55:00,
2013-04-21 10:10:00,45.0,44.5,30.46,West,270,0.0,-999.0,98,-99.99,,,0.00,Acu-Link.com,2013-04-21 14:10:00,
2013-04-21 10:26:00,42.6,42.1,30.46,SSE,157,0.0,-999.0,98,-99.99,,,0.00,Acu-Link.com,2013-04-21 14:26:00,
2013-04-21 10:41:00,45.0,44.5,30.46,SW,225,0.0,-999.0,98,-99.99,,,0.00,Acu-Link.com,2013-04-21 14:41:00,
2013-04-21 10:56:00,43.9,43.4,30.46,South,180,0.0,-999.0,98,-99.99,,,0.00,Acu-Link.com,2013-04-21 14:56:00,
2013-04-21 11:12:00,43.3,42.8,30.46,WNW,292,0.0,-999.0,98,-99.99,,,0.00,Acu-Link.com,2013-04-21 15:12:00,
2013-04-21 11:27:00,43.9,43.4,30.45,East,90,0.0,-999.0,98,-99.99,,,0.00,Acu-Link.com,2013-04-21 15:27:00,
2013-04-21 11:42:00,45.1,44.6,30.45,West,270,0.0,-999.0,98,-99.99,,,0.00,Acu-Link.com,2013-04-21 15:42:00,
2013-04-21 11:57:00,45.3,44.8,30.46,SW,225,0.0,-999.0,98,-99.99,,,0.00,Acu-Link.com,2013-04-21 15:57:00,
2013-04-21 12:14:00,46.9,46.4,30.46,ESE,112,0.0,-999.0,98,-99.99,,,0.00,Acu-Link.com,2013-04-21 16:14:00,
2013-04-21 12:30:00,45.7,45.2,30.46,SE,135,0.0,-999.0,98,-99.99,,,0.00,Acu-Link.com,2013-04-21 16:30:00,
2013-04-21 12:45:00,47.3,46.8,30.46,North,0,0.0,-999.0,98,-99.99,,,0.00,Acu-Link.com,2013-04-21 16:45:00,
2013-04-21 13:01:00,47.5,47.0,30.45,WNW,292,0.0,-999.0,98,-99.99,,,0.00,Acu-Link.com,2013-04-21 17:01:00,
2013-04-21 13:19:00,48.7,48.2,30.45,NW,315,0.0,-999.0,98,-99.99,,,0.00,Acu-Link.com,2013-04-21 17:19:00,
2013-04-21 13:35:00,49.3,48.8,30.45,NNW,337,0.0,-999.0,98,-99.99,,,0.00,Acu-Link.com,2013-04-21 17:35:00,
2013-04-21 13:51:00,49.3,48.8,30.45,West,270,0.0,-999.0,98,-99.99,,,0.00,Acu-Link.com,2013-04-21 17:51:00,
2013-04-21 14:06:00,51.3,50.8,30.44,South,180,0.0,-999.0,98,-99.99,,,0.00,Acu-Link.com,2013-04-21 18:06:00,
2013-04-21 14:22:00,50.2,49.7,30.43,ESE,112,6.3,-999.0,98,-99.99,,,0.00,Acu-Link.com,2013-04-21 18:22:00,
2013-04-21 14:41:00,51.6,51.1,30.43,WSW,247,0.0,-999.0,98,-99.99,,,0.00,Acu-Link.com,2013-04-21 18:41:00,
2013-04-21 14:56:00,50.5,50.0,30.42,ESE,112,0.0,-999.0,98,-99.99,,,0.00,Acu-Link.com,2013-04-21 18:56:00,
2013-04-21 15:11:00,52.7,52.2,30.41,ENE,67,0.0,-999.0,98,-99.99,,,0.00,Acu-Link.com,2013-04-21 19:11:00,
2013-04-21 15:27:00,53.1,52.5,30.40,SSW,202,0.0,-999.0,98,-99.99,,,0.00,Acu-Link.com,2013-04-21 19:27:00,
2013-04-21 15:42:00,54.1,53.5,30.39,West,270,0.0,-999.0,98,-99.99,,,0.00,Acu-Link.com,2013-04-21 19:42:00,
2013-04-21 15:58:00,54.1,53.5,30.40,WNW,292,0.0,-999.0,98,-99.99,,,0.00,Acu-Link.com,2013-04-21 19:58:00,
2013-04-21 16:14:00,53.8,53.2,30.39,ESE,112,5.8,-999.0,98,-99.99,,,0.00,Acu-Link.com,2013-04-21 20:14:00,
2013-04-21 16:29:00,53.2,52.6,30.38,North,0,0.0,-999.0,98,-99.99,,,0.00,Acu-Link.com,2013-04-21 20:29:00,
2013-04-21 16:45:00,54.7,54.1,30.38,NNW,337,0.0,-999.0,98,-99.99,,,0.00,Acu-Link.com,2013-04-21 20:45:00,
2013-04-21 17:04:00,54.7,54.1,30.38,NNW,337,0.0,-999.0,98,-99.99,,,0.00,Acu-Link.com,2013-04-21 21:04:00,
2013-04-21 17:19:00,53.1,52.5,30.38,SE,135,0.0,-999.0,98,-99.99,,,0.00,Acu-Link.com,2013-04-21 21:19:00,
2013-04-21 19:07:00,49.8,49.3,30.38,SSW,202,0.0,-999.0,98,-99.99,,,0.00,Acu-Link.com,2013-04-21 23:07:00,
2013-04-21 19:22:00,49.6,49.1,30.38,ESE,112,0.0,-999.0,98,-99.99,,,0.00,Acu-Link.com,2013-04-21 23:22:00,
2013-04-21 19:38:00,49.3,48.8,30.38,NNE,22,0.0,-999.0,98,-99.99,,,0.00,Acu-Link.com,2013-04-21 23:38:00,
2013-04-21 19:54:00,48.4,47.9,30.38,ESE,112,0.0,-999.0,98,-99.99,,,0.00,Acu-Link.com,2013-04-21 23:54:00,
2013-04-21 20:09:00,46.9,46.4,30.39,NNE,22,0.0,-999.0,98,-99.99,,,0.00,Acu-Link.com,2013-04-22 00:09:00,
2013-04-21 20:24:00,46.4,45.9,30.38,NNE,22,0.0,-999.0,98,-99.99,,,0.00,Acu-Link.com,2013-04-22 00:24:00,
2013-04-21 20:39:00,45.3,44.8,30.39,SSE,157,0.0,-999.0,98,-99.99,,,0.00,Acu-Link.com,2013-04-22 00:39:00,
2013-04-21 20:55:00,44.6,44.1,30.38,ESE,112,0.0,-999.0,98,-99.99,,,0.00,Acu-Link.com,2013-04-22 00:55:00,
2013-04-21 21:10:00,43.9,43.4,30.39,ESE,112,0.0,-999.0,98,-99.99,,,0.00,Acu-Link.com,2013-04-22 01:10:00,
2013-04-21 21:25:00,43.3,42.8,30.40,NNW,337,0.0,-999.0,98,-99.99,,,0.00,Acu-Link.com,2013-04-22 01:25:00,
2013-04-21 21:40:00,42.6,42.1,30.40,NE,45,0.0,-999.0,98,-99.99,,,0.00,Acu-Link.com,2013-04-22 01:40:00,
2013-04-21 21:55:00,42.6,42.1,30.40,NE,45,0.0,-999.0,98,-99.99,,,0.00,Acu-Link.com,2013-04-22 01:55:00,
2013-04-21 22:10:00,42.4,41.9,30.40,ESE,112,0.0,-999.0,98,-99.99,,,0.00,Acu-Link.com,2013-04-22 02:10:00,
2013-04-21 22:26:00,42.3,41.8,30.41,SSE,157,0.0,-999.0,98,-99.99,,,0.00,Acu-Link.com,2013-04-22 02:26:00,
2013-04-21 22:41:00,41.7,41.2,30.41,ESE,112,0.0,-999.0,98,-99.99,,,0.00,Acu-Link.com,2013-04-22 02:41:00,
2013-04-21 22:56:00,41.4,40.9,30.41,North,0,0.0,-999.0,98,-99.99,,,0.00,Acu-Link.com,2013-04-22 02:56:00,
2013-04-21 23:12:00,41.2,40.7,30.41,SE,135,0.0,-999.0,98,-99.99,,,0.00,Acu-Link.com,2013-04-22 03:12:00,
2013-04-21 23:27:00,40.5,40.0,30.41,SE,135,0.0,-999.0,98,-99.99,,,0.00,Acu-Link.com,2013-04-22 03:27:00,
2013-04-21 23:42:00,39.9,39.4,30.41,East,90,0.0,-999.0,98,-99.99,,,0.00,Acu-Link.com,2013-04-22 03:42:00,
2013-04-21 23:58:00,39.2,38.7,30.41,South,180,0.0,-999.0,98,-99.99,,,0.00,Acu-Link.com,2013-04-22 03:58:00,